Weather History for K2W6 - May, 2013

Change the Weather History Date:

Thursday, May 2, 2013

  Actual Average (KNHK) Record (KNHK)
Temperature  
Mean Temperature 55 °F -  
Max Temperature 64 °F 69 °F 83 °F (1977)
Min Temperature 46 °F 50 °F 39 °F (2015)
Degree Days  
Heating Degree Days 10    
Growing Degree Days 5 (Base 50)    
Moisture  
Dew Point 46 °F    
Average Humidity 77    
Maximum Humidity 93    
Minimum Humidity 52    
Precipitation  
Precipitation 0.00 in - - ()
Sea Level Pressure  
Sea Level Pressure 30.40 in    
Wind  
Wind Speed 2 mph (NE)    
Max Wind Speed 9 mph    
Max Gust Speed -    
Visibility 9 miles    
Events      
Averages and records for this station are not official NWS values.
T = Trace of Precipitation, MM = Missing Value Source: NWS Daily Summary

Daily Weather History Graph

Daily Weather History Graph

Search for Another Location

Airport or City:

Trip Planner

Search our weather history database for the weather conditions in past years. The results will help you decide how hot, cold, wet, or windy it might be!

Date:

Astronomy

May. 02, 2013 Rise Set
Actual Time 6:08 AM EDT 7:58 PM EDT
Civil Twilight 5:39 AM EDT 8:27 PM EDT
Nautical Twilight 5:04 AM EDT 9:02 PM EDT
Astronomical Twilight 4:27 AM EDT 9:39 PM EDT
Moon 1:47 AM EDT (5/2) 12:51 PM EDT (5/2)
Length of Visible Light 14h 48m
Length of Day
13h 50m
Waning Gibbous, 48% of the Moon is Illuminated
May 2
Waning Gibbous
May 9
New
May 18
First Quarter
May 25
Full
May 31
Last Quarter

Hourly Weather History & Observations

Time (EDT) Temp. Windchill Dew Point Humidity Pressure Visibility Wind Dir Wind Speed Gust Speed Precip Events Conditions
12:03 AM 48.2 °F - 44.6 °F 87% 30.43 in 10.0 mi Calm Calm - N/A   Clear
12:23 AM 48.2 °F - 44.6 °F 87% 30.43 in 10.0 mi Calm Calm - N/A   Clear
12:43 AM 46.4 °F - 44.6 °F 93% 30.43 in 10.0 mi Calm Calm - N/A   Mostly Cloudy
1:03 AM 46.4 °F - 44.6 °F 93% 30.43 in 7.0 mi Calm Calm - N/A   Overcast
1:23 AM 46.4 °F - 44.6 °F 93% 30.42 in 10.0 mi Calm Calm - N/A   Overcast
1:43 AM 48.2 °F - 46.4 °F 93% 30.42 in 10.0 mi Calm Calm - N/A   Overcast
2:03 AM 50.0 °F - 46.4 °F 87% 30.42 in 10.0 mi Calm Calm - N/A   Overcast
2:23 AM 50.0 °F - 46.4 °F 87% 30.42 in 10.0 mi Calm Calm - N/A   Overcast
2:43 AM 48.2 °F - 46.4 °F 93% 30.41 in 10.0 mi Calm Calm - N/A   Overcast
3:03 AM 46.4 °F - 44.6 °F 93% 30.40 in 10.0 mi Calm Calm - N/A   Overcast
3:23 AM 48.2 °F - 44.6 °F 87% 30.40 in 10.0 mi Calm Calm - N/A   Overcast
3:43 AM 46.4 °F 44.3 °F 44.6 °F 93% 30.41 in 10.0 mi NE 4.6 mph - N/A   Overcast
4:03 AM 46.4 °F - 44.6 °F 93% 30.40 in 10.0 mi Calm Calm - N/A   Overcast
4:23 AM 46.4 °F - 44.6 °F 93% 30.41 in 10.0 mi Calm Calm - N/A   Overcast
4:43 AM 46.4 °F 45.2 °F 44.6 °F 93% 30.40 in 3.0 mi ENE 3.5 mph - N/A   Overcast
5:03 AM 46.4 °F - 44.6 °F 93% 30.41 in 2.5 mi Calm Calm - N/A   Overcast
5:43 AM 46.4 °F 45.2 °F 44.6 °F 93% 30.41 in 3.0 mi NE 3.5 mph - N/A   Overcast
6:03 AM 46.4 °F 45.2 °F 44.6 °F 93% 30.42 in 4.0 mi NE 3.5 mph - N/A   Overcast
6:23 AM 46.4 °F - 44.6 °F 93% 30.42 in - Calm Calm - N/A   Overcast
6:43 AM 46.4 °F - 44.6 °F 93% 30.42 in 4.0 mi Calm Calm - N/A   Overcast
7:03 AM 46.4 °F - 44.6 °F 93% 30.42 in 4.0 mi Calm Calm - N/A   Overcast
7:23 AM 46.4 °F 45.2 °F 44.6 °F 93% 30.43 in 3.0 mi ENE 3.5 mph - N/A   Overcast
7:44 AM 46.4 °F - 44.6 °F 93% 30.43 in 4.0 mi Calm Calm - N/A   Overcast
8:04 AM 46.4 °F 45.2 °F 44.6 °F 93% 30.43 in 5.0 mi East 3.5 mph - N/A   Overcast
8:24 AM 48.2 °F - 44.6 °F 87% 30.44 in 10.0 mi Calm Calm - N/A   Overcast
8:44 AM 50.0 °F - 44.6 °F 82% 30.45 in 10.0 mi ENE 5.8 mph - N/A   Overcast
9:04 AM 50.0 °F - 44.6 °F 82% 30.45 in 10.0 mi ENE 3.5 mph - N/A   Overcast
9:24 AM 50.0 °F - 44.6 °F 82% 30.45 in 10.0 mi NNE 3.5 mph - N/A   Overcast
9:44 AM 50.0 °F - 44.6 °F 82% 30.45 in 10.0 mi NE 3.5 mph - N/A   Overcast
10:04 AM 51.8 °F - 46.4 °F 82% 30.45 in 10.0 mi ENE 4.6 mph - N/A   Overcast
10:24 AM 51.8 °F - 46.4 °F 82% 30.45 in 10.0 mi East 3.5 mph - N/A   Overcast
10:44 AM 53.6 °F - 46.4 °F 77% 30.45 in 10.0 mi East 6.9 mph - N/A   Overcast
11:04 AM 55.4 °F - 46.4 °F 72% 30.45 in 10.0 mi ENE 4.6 mph - N/A   Overcast
11:24 AM 55.4 °F - 46.4 °F 72% 30.44 in 10.0 mi ENE 5.8 mph - N/A   Overcast
11:44 AM 57.2 °F - 46.4 °F 67% 30.44 in 10.0 mi ENE 5.8 mph - N/A   Mostly Cloudy
12:04 PM 59.0 °F - 46.4 °F 63% 30.43 in 10.0 mi ENE 6.9 mph - N/A   Mostly Cloudy
12:24 PM 59.0 °F - 46.4 °F 63% 30.43 in 10.0 mi NE 4.6 mph - N/A   Mostly Cloudy
12:44 PM 59.0 °F - 44.6 °F 59% 30.42 in 10.0 mi ENE 9.2 mph - N/A   Mostly Cloudy
1:04 PM 59.0 °F - 46.4 °F 63% 30.42 in 10.0 mi Calm Calm - N/A   Mostly Cloudy
1:24 PM 59.0 °F - 46.4 °F 63% 30.42 in 10.0 mi NE 4.6 mph - N/A   Overcast
1:44 PM 59.0 °F - 46.4 °F 63% 30.42 in 10.0 mi NE 4.6 mph - N/A   Overcast
2:04 PM 60.8 °F - 46.4 °F 59% 30.42 in 10.0 mi North 5.8 mph - N/A   Mostly Cloudy
2:24 PM 60.8 °F - 46.4 °F 59% 30.42 in 10.0 mi NE 5.8 mph - N/A   Overcast
2:44 PM 60.8 °F - 46.4 °F 59% 30.41 in 10.0 mi Calm Calm - N/A   Mostly Cloudy
3:04 PM 60.8 °F - 48.2 °F 63% 30.41 in 10.0 mi North 6.9 mph - N/A   Mostly Cloudy
3:24 PM 62.6 °F - 46.4 °F 55% 30.40 in 10.0 mi NE 6.9 mph - N/A   Mostly Cloudy
3:44 PM 62.6 °F - 48.2 °F 59% 30.39 in 10.0 mi ENE 3.5 mph - N/A   Scattered Clouds
4:05 PM 62.6 °F - 48.2 °F 59% 30.39 in 10.0 mi ENE 5.8 mph - N/A   Scattered Clouds
4:25 PM 62.6 °F - 46.4 °F 55% 30.38 in 10.0 mi ENE 5.8 mph - N/A   Clear
5:05 PM 64.4 °F - 46.4 °F 52% 30.37 in 10.0 mi NE 5.8 mph - N/A   Clear
5:25 PM 64.4 °F - 46.4 °F 52% 30.36 in 10.0 mi North 5.8 mph - N/A   Clear
5:45 PM 64.4 °F - 46.4 °F 52% 30.36 in 10.0 mi NNE 4.6 mph - N/A   Clear
6:05 PM 62.6 °F - 46.4 °F 55% 30.35 in 10.0 mi NE 3.5 mph - N/A   Clear
6:25 PM 62.6 °F - 46.4 °F 55% 30.35 in 10.0 mi ENE 4.6 mph - N/A   Clear
7:05 PM 62.6 °F - 44.6 °F 52% 30.34 in 10.0 mi Calm Calm - N/A   Clear
7:25 PM 60.8 °F - 44.6 °F 55% 30.34 in 10.0 mi Calm Calm - N/A   Clear
7:45 PM 59.0 °F - 44.6 °F 59% 30.34 in 10.0 mi Calm Calm - N/A   Clear
8:05 PM 55.4 °F - 46.4 °F 72% 30.34 in 10.0 mi Calm Calm - N/A   Clear
8:25 PM 53.6 °F - 46.4 °F 77% 30.34 in 10.0 mi Calm Calm - N/A   Clear
9:05 PM 51.8 °F - 46.4 °F 82% 30.34 in 10.0 mi Calm Calm - N/A   Clear
9:25 PM 51.8 °F - 46.4 °F 82% 30.34 in 10.0 mi Calm Calm - N/A   Clear
9:45 PM 50.0 °F - 46.4 °F 87% 30.35 in 10.0 mi Calm Calm - N/A   Clear
10:05 PM 50.0 °F - 44.6 °F 82% 30.35 in 10.0 mi East 3.5 mph - N/A   Clear
10:25 PM 51.8 °F - 44.6 °F 76% 30.35 in 10.0 mi East 3.5 mph - N/A   Clear
10:45 PM 51.8 °F - 44.6 °F 76% 30.34 in 10.0 mi East 4.6 mph - N/A   Clear
11:05 PM 51.8 °F - 44.6 °F 76% 30.34 in 10.0 mi East 4.6 mph - N/A   Clear
11:25 PM 51.8 °F - 44.6 °F 76% 30.34 in 10.0 mi Calm Calm - N/A   Clear
11:45 PM 50.0 °F - 44.6 °F 82% 30.35 in 10.0 mi Calm Calm - N/A   Clear